Погода Макушино

Погода Макушино : погода сейчас, прогноз погоды и архив. Всё, что Вы хотите узнать о погоде Макушино!

Поиск расширенной информации на нашем сайте:

Другие новости

Новости СМИ2

Главная страница сайта

Новости сайта

03.07.2017

Напоминаем, что на нашем специализированном сайте Метеоцентр.Азия вы можете получить высокодетализированные автоматические прогнозы погоды по пунктам России, СНГ и мира в авиационном формате (включающие направление и скорость ветра, видимость, явления погоды, количество и форму облачности, нижнюю и верхнюю границу облачности).


Погода Макушино - сегодня

Время (UTC), дата Ветер
(°,м/с) 
Видим.   Явления Облачность Т
(°С)
Тd
(°С)
f(%) Тe
(°С)
Pmin
(гПа)
dP
(гПа)
Po
(мм)
O2
(г/м3)
Тmin Tmax R s Состояние
почвы
06 14.10.18 250 (З) 20000 м  {ливн. осадки}  10/10 1000 м кучево-дожд. 
[Cb cap]
+0.6 -2.1 82 -2  1010.6  0.9  745  300           
09 14.10.18 230 (ЮЗ) 20000 м  в посл. час ливневой снег  10/10 1000 м кучево-дожд. 
[Cb cap]
+2.3 -2.3 72 +1  1011  0.5  745  298           
12 14.10.18 210 (ЮЗ) 20000 м  в посл. час ливневой снег  10/10 1000 м кучево-дожд. 
[Cb cap]
+0.2 -1.3 90 +1  1012.1  746  301           
18 14.10.18 210 (ЮЗ) 4000 м  слаб. ливневой снег  10/10 1000 м кучево-дожд. 
[Cb cap]
-0.9 -2.3 90 -2  1013.4  0.3  747  302           
21 14.10.18 130 (ЮВ) 20000 м  в посл. час ливневой снег  10/10 1000 м кучево-дожд. 
[Cb cap]
-1.3 -2.5 92 -1  1014.1  0.7  747  303           
00 15.10.18 150 (ЮВ) 20000 м  {ливн. осадки}  10/10 1000 м кучево-дожд. 
[Cb cap]
-2.2 -3.4 91 -3  1014.9  0.7  748  304           
03 15.10.18 120 (ЮВ) 4000 м  слаб. ливневой снег  10/10 200 м кучево-дожд. 
[Cb cap]
-2 -3.1 92 -1  1016.5  1.6  749  304  -2.4    0.4  равномерный
сухой снег
100% 
06 15.10.18 120 (ЮВ) 20000 м  {ливн. осадки}  10/10 200 м кучево-дожд. 
[Cb cap]
-0.5 -1.9 90 -1  1017.7  1.2  750  303           
09 15.10.18 060 (СВ) 20000 м    9/9 600 м кучево-дожд. 
[Cb cap]
+0.7 -2.8 77 +1  1018.3  0.7  751  302           
12 15.10.18 320 (СЗ) 20000 м    4/4 600 м кучево-дожд. 
[Cb cap]
-0.5 -2.8 84 -1  1019.6  1.2  752  304           
18 15.10.18 010 (С) 20000 м  {ливн. осадки}  8/8 1000 м кучево-дожд. 
[Cb cap]
-0.9 -2.7 88 -2  1021.3  0.5  753  305           
21 15.10.18 340 (С) 20000 м    3/3 1000 м кучево-дожд. 
[Cb cap]
-2.4 -3.9 89 -2  1021.4  753  306           
00 16.10.18 360 (С) 20000 м    10/10 1000 м кучево-дожд. 
[Cb cap]
-1.8 -3 91 -3  1022.2  0.8  753  306           
03 16.10.18 020 (С) 4000 м  дымка  10/10 200 м кучево-дожд. 
[Cb cap]
-2 -3.1 92 -3  1023.3  1.1  754  306  -3.5    0.0  <0.5  мокрый или
старый снег
10-40% 
06 16.10.18 320 (СЗ) 20000 м    10/10 600 м кучево-дожд. 
[Cb cap]
-0.6 -2.2 89 -2  1023.8  0.6  755  305           
09 16.10.18 330 (СЗ) 20000 м    10/10 600 м кучево-дожд. 
[Cb cap]
+0.8 -3.1 75 +1  1023.2  -0.5  754  303           
12 16.10.18 170 (Ю) 20000 м    8/6 1000 м кучево-дожд., верхняя 
[Cb cap|Ci sp]
+0.4 -3.9 73 +1  1022.7  -0.5  754  304           
18 16.10.18 180 (Ю) 20000 м    10/10 1000 м 
[Sc]
-1.4 -5.4 74 -3  1020.7  -1.7  752  305           
21 16.10.18 200 (Ю) 20000 м    10/10 1000 м 
[Sc]
+0 -5 69 -3  1018  -2.6  750  303           
00 17.10.18 200 (Ю) 20000 м    10/10 1000 м 
[Sc]
+0.5 -4.6 69 -3  1014.9  -3  748  301           
03 17.10.18 200 (Ю) 6-10{11}  20000 м    10/10 1000 м 
[Sc]
+0.7 -2.8 77 -3  1012.4  -3  746  300  -1.5        замёрзшая 
18 17.10.18 210 (ЮЗ) 20000 м  в посл. час ливневой дождь  10/10 600 м кучево-дожд. 
[Cb cap]
+5.4 +3.8 89 +4  996.2  -2.9  735  290           
21 17.10.18 280 (З) 6{15}  20000 м    10/10 600 м кучево-дожд. 
[Cb cap]
+2 -0.8 82 -1  997.1  0.6  735  294           
03 18.10.18 300 (СЗ) 9-13{16}  1000 м  ливневой снег  10/10 600 м кучево-дожд. 
[Cb cap]
+0 -1.6 89 -5  998.7  0.9  736  297  +0    <0.5  равномерный
мокрый или
старый снег
100% 
15 18.10.18 300 (СЗ) 9-14{15}  2000 м  ливневой снег  10/10 300 м кучево-дожд. 
[Cb cap]
-0.3 -1.5 92 -5  1005.1  1.8  741  299    +0     
Время (UTC), дата Ветер
(°,м/с) 
Видим.   Явления Облачность Т
(°С)
Тd
(°С)
f(%) Тe
(°С)
Pmin
(гПа)
dP
(гПа)
Po
(мм)
O2
(г/м3)
Тmin Tmax R s Состояние
почвы

Для получения пояснительной информации подведите курсор к названию столбца.

ПОГОДА Макушино - архив

Всё, что Вы хотите узнать о погоде Макушино - удобно и подробно!

Выберите нужную дату (начиная с 1 января 2015* года) и нажмите кнопку "Найти".
Будут отображены архивные сводки погоды по пункту Макушино, начиная с указанной даты.


Отображать данные в формате CSV (для использования в таблицах Excel)


Внимание! Наш архив погоды предназначен исключительно для личного некоммерческого использования в познавательных целях. Если Вам необходимы официальные справки о состоянии погоды (для производственных, юридических, коммерческих и т.п. целей), обращайтесь в органы Росгидромета.

*Примечание: данная дата относится к архиву по метеостанциям СССР (Россия, СНГ, Балтия).
Архив по метеостанциям Зарубежной Европы и Азии (кроме Китая) хранится 10 дней, по другим регионам земного шара (Китай, Африка, Америка, Австралия, Океания) - 1 день.

Макушино - район местоположения метеостанции


Название, широта, долгота, высота метеостанции:
Макушино 55.2°ш. 67.3°д. 140 м над ур. моря [Российская Федерация]

Дополнительная информация

В oтличие oт бoльшинства пoгoдных сайтoв мы публикуем пoдрoбную метеoинфoрмацию в детальнoм прoфессиoнальнoм фoрмате.

Характеристики температуры и влажнoсти вoздуха измеряются на высoте 2 м в тени вдали oт зданий и деревьев.
Скoрoсть ветра измеряется на высoте 10 м (на урoвне рoста челoвека скoрoсть ветра ниже в 1.5-2 раза). Если метеoстанция нахoдится в гoрoде или в лесу, тo скoрoсть ветра занижена на 2-4 м/с пo сравнению с oткрытым местoм. Скoрoсть ветра над акватoриями крупных рек и oзёр, а также на вершинах хoлмoв на 2-5 м/с выше, чем в oбычных услoвиях.
Атмoсфернoе давление в разных тoчках местнoсти мoжет значительнo oтличаться oт давления на метеoстанции, в зависимoсти oт услoвий рельефа (при пoдъёме на 10 м давление пoнижается примернo на 1 мм рт.ст.).